ALTAIR PATHFINDER (42711 NORAD) Tracking and Keplerian Element Data

This shows tracking and keplerian element data for the satellite.

Feedback or suggestion? Click here.




ElementValue
Catalog42711
NameALTAIR PATHFINDER
Epoch Orbit8530
Epoch Day320.21336949
Epoch Year2018
RAAN311.5152
Inclination51.6349
Eccentricity0.0004672
Argument of Perigee44.8575
Mean Anonmoly315.2799
Mean Motion15.69132455
Decay Rate0.00017909
L11 42711U 98067LS 18320.21336949 .00017909 00000-0 15573-3 0 9996
L22 42711 51.6349 311.5152 0004672 44.8575 315.2799 15.69132455 85308

Live tracking and technical data element details for ALTAIR PATHFINDER (NORAD 42711). ALTAIR PATHFINDER can be tracked NOW for your location showing map with azimuth and elevation plus other details from your city location.

Track the satellite on the map from your city or location and see movement details for azimuth, elevation, latitude, longitude, range, height, and movement on the map or in text.







IsCatalogInMostPopularTable: catalog: 42711, numindb: 124
Update: records affected: 1



GetName: 42711 ALTAIR PATHFINDER

Hit Count: updated at: Fri, 16 Nov 2018 11:19:39 GMT